Regional Weather Roundup
Issued by NWS

Home | Current Version | Previous Version | Text Only | Print | Product List | Glossary Off
Versions: 1 2 3 4 5 6 7 8 9 10 11 12 13 14 15 16 17 18 19 20 21 22 23 24 25 26 27 28 29 30 31 32 33 34 35 36 37 38 39 40 41 42 43 44 45 46 47 48 49 50

000
ASUS43 KFSD 160210
RWRSD

WEATHER ROUNDUP FOR SOUTH DAKOTA
NATIONAL WEATHER SERVICE SIOUX FALLS SD
800 PM CST SUN JAN 15 2017

NOTE: "FAIR" INDICATES FEW OR NO CLOUDS BELOW 12,000 FEET WITH NO
SIGNIFICANT WEATHER AND/OR OBSTRUCTIONS TO VISIBILITY.


SDZ001>005-009-010-012>017-160300-
NORTHWEST AND NORTH CENTRAL SOUTH DAKOTA

CITY           SKY/WX    TMP DP  RH WIND       PRES   REMARKS
BUFFALO          N/A     17  11  77 W8        29.96R WCI   7
FAITH            N/A     14   9  80 NW7       30.04R WCI   4
MOBRIDGE       CLOUDY     6  -1  73 SE7       30.05S WCI  -6
$$

SDZ012>016-024>037-041>051-057-063-072>074-160300-
SOUTHWEST AND SOUTH CENTRAL SOUTH DAKOTA

CITY           SKY/WX    TMP DP  RH WIND       PRES   REMARKS
RAPID CTY ARPT CLOUDY    20  13  74 NW3       30.01R
PIERRE         CLOUDY    12   7  80 CALM      30.09S
CUSTER         CLOUDY    26  13  57 N6        29.99R WCI  19
ELLSWORTH AFB  CLOUDY    22  11  63 NW3       30.00R
PHILIP         CLOUDY    11   8  88 CALM      30.07R
PINE RIDGE     CLOUDY    17  15  92 CALM      30.02R
SPEARFISH      FAIR      27   7  43 CALM      30.02R
WINNER         FAIR      27  20  75 E3        30.07S
$$

SDZ004>011-016>023-039-040-160300-
NORTHEAST SOUTH DAKOTA

CITY           SKY/WX    TMP DP  RH WIND       PRES   REMARKS
ABERDEEN       CLOUDY     2  -1  88 S5        30.12F WCI  -8
WATERTOWN      CLOUDY    13  11  92 CALM      30.11S FOG
BROOKINGS      CLOUDY    22  18  85 SE7       30.12F WCI  13
SISSETON         N/A     21  17  84 SE5       30.11F WCI  15
$$

SDZ017-020-022-023-036>040-048>070-160300-
SOUTHEAST SOUTH DAKOTA

CITY           SKY/WX    TMP DP  RH WIND       PRES   REMARKS
SIOUX FALLS    CLOUDY    28  19  69 S9        30.15F WCI  19
HURON          CLOUDY    16  14  92 E3        30.13S
CHAMBERLAIN    CLOUDY    21  16  81 CALM      30.10S
MITCHELL       CLOUDY    27  22  81 S8        30.13S WCI  19
YANKTON        PTCLDY    28  19  69 E5        30.14S WCI  23
$$

ABBREVIATIONS USED IN REMARKS
   TC - TEMPERATURE IN CELSIUS
  WCI - WIND CHILL INDEX
   HX - HEAT INDEX
  VSB - VISIBILITY





USA.gov is the U.S. government's official web portal to all federal, state and local government web resources and services.